This demonstration page uses our WeatherBlox Daily Observations layout. Learn more.

Left ArrowRight Arrow

36.19886, -115.1175

Hourly Observations for March 22, 2017

Temp ( °F °C ) Dew Point ( °F °C ) Humidity (%) Winds ( mph kmh ) Pressure ( in mb ) Visibility ( mi km ) Precip ( " mm )
12:53 am 00:53 Mostly Clear 69 20.6 45 7.2 42 42 S 13 20 29.87 1012 10 16 N/A
1:53 am 01:53 Clear 68 20 45 7.2 44 44 SSW 9 15 29.88 1012 10 16 N/A
2:53 am 02:53 Clear 67 19.4 44 6.7 44 44 SW 12 19 29.85 1011 10 16 N/A
3:53 am 03:53 Clear 65 18.3 44 6.7 47 47 SE 14 22 29.83 1010 10 16 N/A
4:53 am 04:53 Clear 64 17.8 42 5.6 45 45 SSE 12 19 29.85 1011 10 16 N/A
5:53 am 05:53 Clear 64 17.8 40 4.4 41 41 S 9 15 29.86 1011 10 16 N/A
6:53 am 06:53 Sunny 65 18.3 28 -2.2 25 25 VRB 6 9 29.85 1011 10 16 N/A
7:53 am 07:53 Sunny 65 18.3 31 -0.6 28 28 SW 18 30 29.87 1011 10 16 N/A
8:53 am 08:53 Sunny with Light Rain 67 19.4 33 0.6 28 28 SW 21 33 29.87 1012 10 16 N/A
9:53 am 09:53 Sunny 68 20 34 1.1 28 28 SSW 15 24 29.88 1012 10 16 N/A
10:53 am 10:53 Sunny 69 20.6 33 0.6 26 26 SW 17 28 29.88 1012 10 16 N/A
11:53 am 11:53 Sunny 70 21.1 25 -3.9 18 18 SW 17 28 29.87 1012 10 16 N/A
12:53 pm 12:53 Sunny 70 21.1 25 -3.9 18 18 SW 14 22 29.85 1011 10 16 N/A
1:53 pm 13:53 Sunny 71 21.7 29 -1.7 21 21 W 10 17 29.83 1010 10 16 N/A
2:53 pm 14:53 Sunny 71 21.7 29 -1.7 21 21 SW 13 20 29.79 1009 10 16 N/A
3:53 pm 15:53 Sunny 72 22.2 29 -1.7 20 20 SW 20 31 29.77 1008 10 16 N/A
4:53 pm 16:53 Sunny 71 21.7 12 -11.1 10 10 W 25 41 29.76 1008 10 16 N/A
5:31 pm 17:31 Sunny with Nearby Thunderstorms 69 20.6 15 -9.4 12 12 WSW 17 28 29.65 1004 10 16 N/A
5:53 pm 17:53 Sunny 68 20 11 -11.7 11 11 WSW 15 24 29.75 1007 10 16 N/A
6:53 pm 18:53 Sunny 67 19.4 14 -10 13 13 WSW 17 28 29.75 1008 10 16 N/A
7:53 pm 19:53 Clear 66 18.9 21 -6.1 18 18 WSW 14 22 29.75 1007 10 16 N/A
8:53 pm 20:53 Clear 64 17.8 24 -4.4 22 22 W 12 19 29.76 1008 10 16 N/A
9:07 pm 21:07 Clear with Nearby Thunderstorms 63 17.2 26 -3.3 25 25 W 9 15 29.68 1005 10 16 N/A
9:24 pm 21:24 Clear 63 17 27 -3 25 25 SW 15 24 29.68 1005 10 16 N/A
9:53 pm 21:53 Clear 61 16.1 28 -2.2 29 29 WSW 13 20 29.78 1008 10 16 N/A
10:53 pm 22:53 Clear 60 15.6 27 -2.8 28 28 SW 12 19 29.78 1008 10 16 N/A
11:53 pm 23:53 Clear 58 14.4 26 -3.3 29 29 SW 17 28 29.76 1008 10 16 N/A

Powered by AerisWeather